TimeCDT,TemperatureF,Dew PointF,Humidity,Sea Level PressureIn,VisibilityMPH,Wind Direction,Wind SpeedMPH,Gust SpeedMPH,PrecipitationIn,Events,Conditions,WindDirDegrees,DateUTC
12:55 AM,33.1,32.0,96,29.79,7.0,West,18.4,26.5,0.00,,Overcast,270,2012-10-05 05:55:00
1:55 AM,33.1,30.9,92,29.80,6.0,West,15.0,26.5,0.00,Snow,Light Snow,280,2012-10-05 06:55:00
2:38 AM,33.8,30.2,87,29.77,4.0,West,17.3,27.6,0.00,Snow,Light Snow,270,2012-10-05 07:38:00
2:41 AM,33.8,30.2,87,29.77,4.0,West,15.0,27.6,0.00,Snow,Light Snow,270,2012-10-05 07:41:00
2:48 AM,33.8,30.2,87,29.77,5.0,West,17.3,25.3,0.00,Snow,Light Snow,270,2012-10-05 07:48:00
2:55 AM,33.1,30.9,92,29.81,5.0,West,18.4,27.6,0.00,Snow,Light Snow,270,2012-10-05 07:55:00
3:07 AM,33.8,30.2,87,29.77,5.0,West,15.0,24.2,0.00,Snow,Light Snow,270,2012-10-05 08:07:00
3:55 AM,33.1,30.9,92,29.82,5.0,West,17.3,21.9,0.00,Snow,Light Snow,270,2012-10-05 08:55:00
4:14 AM,33.8,30.2,87,29.77,4.0,West,18.4,25.3,0.00,Snow,Light Snow,270,2012-10-05 09:14:00
4:30 AM,33.8,30.2,87,29.77,4.0,West,19.6,26.5,0.00,Snow,Light Snow,270,2012-10-05 09:30:00
4:55 AM,33.1,30.9,92,29.82,3.0,West,13.8,24.2,0.00,Snow,Light Snow,270,2012-10-05 09:55:00
5:03 AM,33.8,30.2,87,29.77,1.8,West,12.7,23.0,0.00,Snow,Light Snow,270,2012-10-05 10:03:00
5:18 AM,32.0,30.2,93,29.77,2.0,West,17.3,24.2,0.01,Snow,Light Snow,270,2012-10-05 10:18:00
5:30 AM,32.0,30.2,93,29.77,1.5,West,17.3,24.2,0.01,Snow,Light Snow,270,2012-10-05 10:30:00
5:45 AM,32.0,30.2,93,29.78,0.8,West,15.0,21.9,0.01,Snow,Light Snow,280,2012-10-05 10:45:00
5:55 AM,32.0,30.9,96,29.83,0.8,West,13.8,21.9,0.03,Snow,Light Snow,270,2012-10-05 10:55:00
6:09 AM,32.0,30.2,93,29.78,1.0,West,15.0,27.6,0.02,Snow,Light Snow,270,2012-10-05 11:09:00
6:45 AM,32.0,30.2,93,29.78,1.0,West,13.8,23.0,0.05,Snow,Light Snow,270,2012-10-05 11:45:00
6:55 AM,32.0,30.9,96,29.83,1.2,West,17.3,25.3,0.06,Snow,Light Snow,280,2012-10-05 11:55:00
7:14 AM,32.0,30.2,93,29.79,0.8,West,15.0,20.7,0.01,Snow,Light Snow,270,2012-10-05 12:14:00
7:27 AM,32.0,30.2,93,29.79,1.2,West,12.7,21.9,0.03,Snow,Light Snow,270,2012-10-05 12:27:00
7:46 AM,32.0,30.2,93,29.79,3.0,West,12.7,18.4,0.04,Snow,Light Snow,270,2012-10-05 12:46:00
7:55 AM,32.0,30.9,96,29.84,4.0,West,13.8,-,0.04,,Overcast,270,2012-10-05 12:55:00
8:43 AM,33.8,30.2,87,29.81,4.0,West,13.8,21.9,0.00,Snow,Light Snow,280,2012-10-05 13:43:00
8:55 AM,33.1,30.9,92,29.86,4.0,West,12.7,-,0.00,Snow,Light Snow,280,2012-10-05 13:55:00
9:31 AM,33.8,30.2,87,29.82,5.0,West,13.8,28.8,N/A,,Overcast,280,2012-10-05 14:31:00
9:55 AM,33.1,32.0,96,29.88,4.0,WNW,13.8,-,0.00,,Overcast,290,2012-10-05 14:55:00
10:55 AM,34.0,32.0,92,29.90,6.0,WNW,13.8,20.7,N/A,,Overcast,290,2012-10-05 15:55:00
11:38 AM,35.6,33.8,93,29.87,10.0,WNW,18.4,24.2,0.00,,Overcast,290,2012-10-05 16:38:00
11:48 AM,37.4,33.8,87,29.88,10.0,WNW,15.0,23.0,0.00,Rain,Light Rain,300,2012-10-05 16:48:00
11:55 AM,37.0,34.0,89,29.93,10.0,NW,17.3,25.3,0.00,Rain,Light Rain,310,2012-10-05 16:55:00
12:55 PM,37.0,34.0,89,29.95,10.0,NW,16.1,25.3,0.00,Rain,Light Rain,310,2012-10-05 17:55:00
1:55 PM,37.0,35.1,93,29.97,10.0,NW,15.0,20.7,0.00,Rain,Light Rain,310,2012-10-05 18:55:00
2:24 PM,37.4,35.6,93,29.93,10.0,NW,16.1,-,0.01,,Overcast,310,2012-10-05 19:24:00
2:37 PM,37.4,35.6,93,29.94,10.0,NW,15.0,21.9,0.01,,Overcast,320,2012-10-05 19:37:00
2:55 PM,39.0,35.1,86,29.99,10.0,NNW,12.7,21.9,0.01,,Overcast,330,2012-10-05 19:55:00
3:55 PM,37.9,34.0,86,30.00,10.0,NNW,13.8,-,0.00,,Overcast,330,2012-10-05 20:55:00
4:10 PM,37.4,33.8,87,29.96,10.0,NNW,15.0,21.9,N/A,,Overcast,330,2012-10-05 21:10:00
4:17 PM,37.4,35.6,93,29.96,10.0,NNW,12.7,20.7,0.00,Rain,Light Rain,330,2012-10-05 21:17:00
4:55 PM,35.1,32.0,89,30.04,3.0,NNW,15.0,24.2,0.00,Snow,Light Snow,340,2012-10-05 21:55:00
5:29 PM,37.4,33.8,87,30.00,10.0,North,13.8,19.6,0.01,,Overcast,350,2012-10-05 22:29:00
5:55 PM,37.0,34.0,89,30.06,10.0,NNW,15.0,19.6,0.01,Rain,Light Rain,330,2012-10-05 22:55:00
6:38 PM,35.6,32.0,87,30.03,10.0,NNW,16.1,21.9,0.00,Rain,Light Rain,340,2012-10-05 23:38:00
6:55 PM,35.1,33.1,92,30.09,10.0,North,15.0,-,0.00,Rain,Light Rain,350,2012-10-05 23:55:00
7:25 PM,33.8,32.0,93,30.06,5.0,NNW,10.4,-,0.02,Snow,Light Snow,340,2012-10-06 00:25:00
7:32 PM,33.8,32.0,93,30.07,7.0,North,10.4,-,0.02,Snow,Light Snow,350,2012-10-06 00:32:00
7:45 PM,33.8,32.0,93,30.07,5.0,NNW,12.7,-,0.03,Snow,Light Snow,340,2012-10-06 00:45:00
7:55 PM,34.0,32.0,92,30.13,6.0,NNW,12.7,-,0.04,Snow,Light Snow,340,2012-10-06 00:55:00
8:55 PM,34.0,32.0,92,30.15,6.0,NNW,11.5,-,0.00,Snow,Light Snow,340,2012-10-06 01:55:00
9:05 PM,33.8,32.0,93,30.10,6.0,NNW,12.7,-,0.01,Snow,Light Snow,340,2012-10-06 02:05:00
9:51 PM,33.8,30.2,87,30.11,2.5,NNW,15.0,-,0.01,Snow,Light Snow,340,2012-10-06 02:51:00
9:55 PM,33.1,30.9,92,30.16,6.0,NNW,12.7,-,0.01,Snow,Light Snow,340,2012-10-06 02:55:00
10:31 PM,33.8,30.2,87,30.12,1.8,NNW,13.8,-,0.00,Snow,Light Snow,340,2012-10-06 03:31:00
10:38 PM,33.8,30.2,87,30.12,2.0,NNW,13.8,-,0.01,Snow,Light Snow,340,2012-10-06 03:38:00
10:40 PM,33.8,30.2,87,30.12,3.0,NNW,11.5,19.6,0.01,Snow,Light Snow,340,2012-10-06 03:40:00
10:55 PM,33.1,30.9,92,30.17,2.5,North,11.5,-,0.01,Snow,Light Snow,350,2012-10-06 03:55:00
11:02 PM,33.8,30.2,87,30.12,7.0,NNW,12.7,-,0.00,Snow,Light Snow,340,2012-10-06 04:02:00
11:55 PM,33.1,30.9,92,30.18,6.0,North,13.8,-,0.00,Snow,Light Snow,350,2012-10-06 04:55:00